Regional Weather Roundup
Issued by NWS Kansas City/Pleasant Hill, MO

Home | Current Version | Previous Version | Text Only | Print | Product List | Glossary On
Versions: 1 2 3 4 5 6 7 8 9 10 11 12 13 14 15 16 17 18 19 20 21 22 23 24 25 26 27
000
ASUS43 KEAX 241710
RWREAX

WEATHER ROUNDUP FOR EASTERN KANSAS AND NORTHWEST MISSOURI
NATIONAL WEATHER SERVICE KANSAS CITY/PLEASANT HILL MO
1200 PM CDT TUE MAY 24 2016

KSZ040-057-103>105-MOZ028-029-037-043-241800-
...KANSAS CITY METROPOLITAN AREA...

CITY           SKY/WX    TMP DP  RH WIND       PRES   REMARKS
K.C. INTL      CLOUDY    70  62  76 N3        29.93F
K.C. DOWNTOWN  CLOUDY    71  62  73 E8        29.91F
LEES SUMMIT    CLOUDY    69  63  81 E7        29.94F
OLATHE - IXD   CLOUDY    71  62  73 S8        29.97F
OLATHE - OJC   CLOUDY    70  63  78 E7        29.95F
LAWRENCE       CLOUDY    72  62  71 N3        29.96R

$$

MOZ001>008-011>017-020>025-030>033-038>040-044>046-053-054-241800-
...NORTHERN AND CENTRAL MISSOURI...

CITY           SKY/WX    TMP DP  RH WIND       PRES   REMARKS
ST. JOSEPH     PTSUNNY   70  59  68 SW3       29.93F
MOSBY            N/A     70  63  78 N7        29.93F
WARRENSBURG    CLOUDY    70  64  83 S6        29.98R
WHITEMAN AFB   CLOUDY    72  70  94 SW9       29.99R
CLINTON        LGT RAIN  64  64 100 CALM      30.00R
SEDALIA        CLOUDY    71  66  84 SE15      30.00R
WARSAW         NOT AVBL
CHILLICOTHE      N/A     75  64  68 NW9       29.98F
KIRKSVILLE     CLOUDY    75  66  73 SW7       29.98R

$$

MOZ041-047>049-056>058-063>065-088>090-097-241800-
...EASTERN AND SOUTHERN MISSOURI...

CITY           SKY/WX    TMP DP  RH WIND       PRES   REMARKS
ST. LOUIS INTL PTSUNNY   81  60  48 S8        30.01F
SPIRIT OF STL  MOSUNNY   82  65  56 SW6       29.99F
COLUMBIA       CLOUDY    70  67  90 S7        30.01S
JEFFERSON CITY LGT RAIN  68  66  93 S7        30.01S
ROLLA          TSTM      69  66  90 S5        30.01R FOG
SPRINGFIELD    CLOUDY    73  65  75 W8        30.02R
BRANSON        PTSUNNY   81  66  61 S10G17    30.02R
JOPLIN         TSTM      66  65  96 NE10      30.00R FOG
WEST PLAINS    CLOUDY    71  64  78 S8        30.04F

$$

IAZ060-094-KSZ022-034>040-054-083-096-NEZ052-066-093-241800-
...KANSAS...SOUTHEAST NEBRASKA AND IOWA...

CITY           SKY/WX    TMP DP  RH WIND       PRES   REMARKS
TOPEKA         CLOUDY    72  61  68 W8        29.94R
MANHATTAN      CLOUDY    73  70  90 SE10G22   29.85F
EMPORIA        MOSUNNY   73  61  65 NE13      29.95S
CHANUTE        CLOUDY    69  63  81 E10       29.96R
WICHITA        MOSUNNY   76  66  71 E13       29.92F
OMAHA          CLOUDY    75  63  66 N7        29.89R
LINCOLN        MOSUNNY   73  60  63 N8        29.90R
FALLS CITY     CLOUDY    72  58  61 S12G20    29.81F
LAMONI         CLOUDY    73  66  78 S9        29.94F
DES MOINES     CLOUDY    73  63  70 W3        29.92F

$$





USA.gov is the U.S. government's official web portal to all federal, state and local government web resources and services.